Weather in Petrovka

Russia / Omsk Oblast     54°57′33″N   73°02′36″E
temp.,
°C
wind,
m/s
gust,
m/s
humid.,
%
clouds,
%
prec.,
mm/h
press.,
hPa
HPBL,
m
11 april, sun
sun1100:00−2e239654 0.0 104250
03:00−1ese3493100 0.0 1042242
06:00−1se3391100 0.0 1043277
09:000sse348751 0.0 1043336
12:00+3sse23809 0.0 1042398
15:00+5s22705 0.0 1041460
18:00+5s23785 0.0 104086
21:00+1ssw338827 0.0 104041
12 april, mon
mon1200:000ssw358998 0.0 103871
03:000sw378892 0.0 1037119
06:000sw4785100 0.0 1037125
09:00+3wsw487676 0.0 1035232
12:00+8wsw5860100 0.0 1034406
15:00+10w685887 0.0 1033609
18:00+9wnw4877100 0.0 1033505
21:00+7nnw41092100 0.0 1034368
13 april, tue
tue1300:00+4n3896100 0.0 1036205
03:00+3n3989100 0.0 1037179
06:00+1n35835 0.0 103969
09:00+4nnw34680 0.0 1039266
12:00+8nnw45440 0.0 1040875
15:00+10nw45335 0.0 10391038
18:00+11nw45385 0.0 10381093
21:00+7w33595 0.0 103824
14 april, wed
wed1400:00+5w33650 0.0 103740
03:00+4wsw3472100 0.0 103649
06:00+3wsw467811 0.0 103681
09:00+7wsw586589 0.0 1035277
12:00+11wsw6850100 0.0 1033643
15:00+13wsw684183 0.0 1030918
18:00+14wsw584349 0.0 1028953
21:00+9wsw476348 0.0 1027116
15 april, thu
thu1500:00+8wsw487199 0.0 1026117
03:00+7wsw367645 0.0 102481
06:00+6wsw35816 0.0 102374
09:00+10wsw47705 0.0 1022231
12:00+15wsw575946 0.0 1021668
15:00+17w675110 0.0 10191272
18:00+17w57465 0.0 10181501
21:00+13w33675 0.0 101840